TimeCET,TemperatureF,Dew PointF,Humidity,Sea Level PressureIn,VisibilityMPH,Wind Direction,Wind SpeedMPH,Gust SpeedMPH,PrecipitationIn,Events,Conditions,WindDirDegrees,DateUTC
12:00 AM,55,49,74,29.94,,SSW,9.2,,,,,210,2014-02-04 23:00:00
12:00 AM,55.4,48.2,77,29.92,6.2,SSW,9.2,-,N/A,,Scattered Clouds,210,2014-02-04 23:00:00
12:30 AM,55.4,48.2,77,29.92,6.2,SSW,10.4,-,N/A,,Scattered Clouds,210,2014-02-04 23:30:00
1:00 AM,55,49,73,29.94,9,SW,12.7,,,,Partly Cloudy,220,2014-02-05 00:00:00
1:00 AM,55.4,48.2,77,29.92,6.2,SW,12.7,-,N/A,,Scattered Clouds,220,2014-02-05 00:00:00
1:30 AM,55.4,50.0,82,29.92,6.2,SSW,8.1,-,N/A,,Scattered Clouds,210,2014-02-05 00:30:00
2:00 AM,54,50,82,29.94,,SW,15.0,,,,Unknown Precipitation,230,2014-02-05 01:00:00
2:00 AM,53.6,50.0,88,29.92,6.2,WSW,12.7,-,N/A,,Light Drizzle,240,2014-02-05 01:00:00
2:30 AM,53.6,50.0,88,29.92,6.2,SW,11.5,-,N/A,,Scattered Clouds,220,2014-02-05 01:30:00
3:00 AM,54,49,77,29.92,,SW,15.0,,,,Unknown Precipitation,230,2014-02-05 02:00:00
3:00 AM,53.6,48.2,82,29.92,6.2,WSW,11.5,-,N/A,Rain,Light Rain,240,2014-02-05 02:00:00
3:30 AM,53.6,50.0,88,29.89,6.2,SW,12.7,-,N/A,,Partly Cloudy,230,2014-02-05 02:30:00
4:00 AM,54,48,75,29.88,9,SW,17.3,,,,Partly Cloudy,220,2014-02-05 03:00:00
4:00 AM,55.4,50.0,82,29.86,6.2,SW,13.8,-,N/A,,Partly Cloudy,220,2014-02-05 03:00:00
4:30 AM,55.4,50.0,82,29.86,6.2,SW,12.7,-,N/A,,Partly Cloudy,220,2014-02-05 03:30:00
5:00 AM,55,50,78,29.86,,SW,15.0,,,,,220,2014-02-05 04:00:00
5:00 AM,55.4,50.0,82,29.86,6.2,SW,13.8,-,N/A,,Partly Cloudy,220,2014-02-05 04:00:00
5:30 AM,55.4,50.0,82,29.83,6.2,SW,15.0,-,N/A,Rain,Light Rain,220,2014-02-05 04:30:00
6:00 AM,55,51,81,29.83,,SW,18.4,,,,Unknown Precipitation,220,2014-02-05 05:00:00
6:00 AM,55.4,50.0,82,29.83,6.2,SW,15.0,-,N/A,,Light Drizzle,220,2014-02-05 05:00:00
6:30 AM,55.4,51.8,88,29.83,6.2,SW,13.8,-,N/A,,Scattered Clouds,220,2014-02-05 05:30:00
7:00 AM,56,51,80,29.83,9,SW,18.4,,,Rain,Light Rain,220,2014-02-05 06:00:00
7:00 AM,55.4,51.8,88,29.80,6.2,SW,18.4,-,N/A,Rain,Light Rain,220,2014-02-05 06:00:00
7:20 AM,55.4,51.8,88,29.83,6.2,SW,16.1,-,N/A,Rain,Rain,230,2014-02-05 06:20:00
7:30 AM,55.4,51.8,88,29.83,6.2,SW,15.0,-,N/A,Rain,Light Rain,230,2014-02-05 06:30:00
8:00 AM,55,52,87,29.82,,SW,13.8,,,,Unknown Precipitation,220,2014-02-05 07:00:00
8:00 AM,55.4,51.8,88,29.80,3.7,SW,12.7,-,N/A,Rain,Light Rain,220,2014-02-05 07:00:00
8:30 AM,55.4,51.8,88,29.80,5.6,SW,13.8,-,N/A,Rain,Light Rain,230,2014-02-05 07:30:00
9:00 AM,56,53,84,29.83,,WSW,13.8,,,,Unknown Precipitation,240,2014-02-05 08:00:00
9:00 AM,55.4,53.6,94,29.80,5.6,SW,12.7,-,N/A,Rain,Light Rain,230,2014-02-05 08:00:00
9:30 AM,57.2,53.6,88,29.80,5.6,SW,13.8,-,N/A,Rain,Light Rain,230,2014-02-05 08:30:00
10:00 AM,56,53,87,29.83,6,WSW,13.8,,,Rain,Light Rain,240,2014-02-05 09:00:00
10:00 AM,57.2,53.6,88,29.83,5.6,WSW,12.7,-,N/A,Rain,Light Rain,240,2014-02-05 09:00:00
10:30 AM,57.2,53.6,88,29.83,5.6,SW,10.4,-,N/A,Rain,Light Rain,230,2014-02-05 09:30:00
11:00 AM,57,54,84,29.83,,WSW,16.1,,,,Unknown Precipitation,240,2014-02-05 10:00:00
11:00 AM,57.2,53.6,88,29.80,5.6,SW,10.4,-,N/A,Rain,Light Rain,230,2014-02-05 10:00:00
11:30 AM,57.2,53.6,88,29.80,5.6,SW,13.8,-,N/A,,Mostly Cloudy,230,2014-02-05 10:30:00
12:00 PM,59,55,81,29.82,,WSW,18.4,,,,,240,2014-02-05 11:00:00
12:00 PM,59.0,55.4,88,29.80,5.6,WSW,15.0,-,N/A,,Mostly Cloudy,240,2014-02-05 11:00:00
12:30 PM,57.2,55.4,94,29.80,5.6,WSW,20.7,-,N/A,Rain,Light Rain,240,2014-02-05 11:30:00
1:00 PM,59,55,82,29.80,6,WSW,24.2,,,,Mist,240,2014-02-05 12:00:00
1:00 PM,59.0,55.4,88,29.77,5.6,WSW,23.0,-,N/A,,Overcast,240,2014-02-05 12:00:00
1:30 PM,60.8,57.2,88,29.77,5.6,SW,21.9,-,N/A,,Scattered Clouds,230,2014-02-05 12:30:00
2:00 PM,62,55,72,29.79,,WSW,20.7,,,,,240,2014-02-05 13:00:00
2:00 PM,60.8,57.2,88,29.77,5.6,WSW,19.6,-,N/A,,Partly Cloudy,240,2014-02-05 13:00:00
2:30 PM,60.8,55.4,82,29.80,5.6,WSW,20.7,-,N/A,,Partly Cloudy,240,2014-02-05 13:30:00
3:00 PM,61,55,74,29.80,,WSW,20.7,,,,,240,2014-02-05 14:00:00
3:00 PM,60.8,55.4,82,29.80,6.2,WSW,21.9,-,N/A,,Scattered Clouds,250,2014-02-05 14:00:00
3:30 PM,60.8,55.4,82,29.80,6.2,WSW,20.7,-,N/A,,Scattered Clouds,250,2014-02-05 14:30:00
4:00 PM,62,51,59,29.81,17,WSW,20.7,,,,Partly Cloudy,250,2014-02-05 15:00:00
4:00 PM,62.6,51.8,68,29.80,6.2,WSW,18.4,-,N/A,,Partly Cloudy,250,2014-02-05 15:00:00
4:30 PM,60.8,50.0,68,29.80,6.2,WSW,19.6,-,N/A,,Partly Cloudy,250,2014-02-05 15:30:00
5:00 PM,61,49,56,29.84,,West,16.1,,,,,260,2014-02-05 16:00:00
5:00 PM,60.8,50.0,68,29.83,6.2,West,19.6,-,N/A,,Partly Cloudy,260,2014-02-05 16:00:00
5:30 PM,60.8,44.6,55,29.86,6.2,WNW,10.4,-,N/A,,Partly Cloudy,290,2014-02-05 16:30:00
6:00 PM,60,47,53,29.88,,NW,9.2,,,,,310,2014-02-05 17:00:00
6:00 PM,60.8,48.2,63,29.86,6.2,NW,8.1,-,N/A,,Partly Cloudy,320,2014-02-05 17:00:00
6:30 PM,57.2,48.2,72,29.89,6.2,NW,3.5,-,N/A,,Partly Cloudy,320,2014-02-05 17:30:00
7:00 PM,57,49,67,29.91,9,Calm,Calm,,,,Partly Cloudy,,2014-02-05 18:00:00
7:00 PM,57.2,48.2,72,29.89,6.2,Calm,Calm,-,N/A,,Partly Cloudy,0,2014-02-05 18:00:00
7:30 PM,53.6,48.2,82,29.92,6.2,South,4.6,-,N/A,,Partly Cloudy,180,2014-02-05 18:30:00
8:00 PM,54,49,78,29.94,,SSW,1.2,,,,,210,2014-02-05 19:00:00
8:00 PM,55.4,50.0,82,29.92,5.6,Variable,1.2,-,N/A,,Partly Cloudy,0,2014-02-05 19:00:00
8:30 PM,50.0,46.4,87,29.95,5.6,Calm,Calm,-,N/A,,Partly Cloudy,0,2014-02-05 19:30:00
9:00 PM,49,46,85,29.96,,Calm,Calm,,,,,,2014-02-05 20:00:00
9:00 PM,50.0,46.4,87,29.95,6.2,Calm,Calm,-,N/A,,Partly Cloudy,0,2014-02-05 20:00:00
9:30 PM,48.2,46.4,93,29.98,6.2,Variable,2.3,-,N/A,,Partly Cloudy,0,2014-02-05 20:30:00
10:00 PM,46,45,93,30.00,9,NE,2.3,,,,Clear,50,2014-02-05 21:00:00
10:00 PM,46.4,44.6,93,29.98,-9999.0,Variable,1.2,-,N/A,,Clear,0,2014-02-05 21:00:00
10:30 PM,46.4,44.6,93,29.98,-9999.0,Variable,1.2,-,N/A,,Clear,0,2014-02-05 21:30:00
11:00 PM,44,43,94,30.01,,Calm,Calm,,,,,,2014-02-05 22:00:00
11:00 PM,44.6,42.8,93,30.01,-9999.0,Calm,Calm,-,N/A,,Clear,0,2014-02-05 22:00:00
11:30 PM,42.8,42.8,100,30.01,-9999.0,Calm,Calm,-,N/A,,Clear,0,2014-02-05 22:30:00